SCP
0 0 0 0 0 0 0 0 0 0 0 0 0 0 0 0 0 0 0 0 0 0 0 0 0 0 0 0 0 0 0 0 0 0 0 0 0 0 0 0 0 0 0 0 0 0 0 0 0 0 0 0 0 0
0 0 0 0 0 0 0 0 0 0 0 0 0 0 0 0 0 0 0 0 0 0 0 0 0 0 0 0 0 0 0 0 0 0 0 0 0 0 0 0 0 0 0 0 0 0 0 0 0 0 0 0 0 0
0 0 0 0 0 0 0 0 0 0 0 0 0 0 0 0 0 0 0 0 0 0 0 0 0 0 0 0 0 0 0 0 0 0 0 0 0 0 0 0 0 0 0 0 0 0 0 0 0 0 0 0 0 0
0 0 0 0 0 0 0 0 0 0 0 0 0 0 0 0 0 0 0 0 0 0 0 0 0 0 0 0 0 0 0 0 0 0 0 0 0 0 0 0 0 0 0 0 0 0 0 0 0 0 0 0 0 0
0 0 0 0 0 0 0 0 0 0 0 0 0 0 0 0 0 0 0 0 0 0 0 0 -0 -0 0 0 0 0 0 0 0 0 0 0 0 0 0 0 0 0 0 0 0 0 0 0 0 0 0 0 0 0
0 0 0 0 0 0 0 0 0 0 0 0 0 0 0 0 0 0 0 0 0 0 0 0 0 0 0 0 0 0 0 0 0 0 0 0 0 0 0 0 0 0 0 0 0 0 0 0 0 0 0 0 0 0
0 0 0 0 0 0 0 0 0 0 0 0 0 0 0 0 0 0 0 0 0 0 0 0 0 0 0 0 0 0 0 0 0 0 0 0 0 0 0 0 0 0 0 0 0 0 0 0 0 0 0 0 0 0
0 0 0 0 0 0 0 0 0 0 0 0 0 0 0 0 0 0 0 0 0 0 0 0 0 0 0 0 0 0 0 0 0 0 0 0 0 0 0 0 0 0 0 0 0 0 0 0 0 0 0 0 0 0
0 0 0 0 -0 0 0 0 0 0 0 0 0 0 0 0 0 0 0 0 0 0 0 0 0 0 0 0 0 0 0 0 0 0 0 0 0 0 0 0 0 0 0 0 0 0 0 0 0 0 0 0 0 0
0 0 0 0 0 0 0 0 0 0 0 0 0 0 0 0 0 0 0 0 0 0 0 0 0 0 0 0 0 0 0 0 0 0 0 0 0 0 0 0 0 0 0 0 0 0 0 0 0 0 0 0 0 0
0 0 0 0 0 0 -0 0 0 0 0 0 0 0 0 0 0 0 0 0 0 0 0 0 0 0 0 0 0 0 0 0 0 0 0 0 0 0 0 0 0 0 0 0 0 0 0 0 0 0 0 0 -0 -0
0 0 0 0 0 0 -0 0 0 0 0 0 0 0 0 0 0 0 0 0 0 0 0 0 0 0 0 0 0 0 0 0 0 0 0 0 0 0 0 0 0 0 0 0 0 0 0 0 0 0 -0 -0 -0 -0
0 0 0 0 0 0 0 0 0 0 0 0 0 0 0 0 0 0 0 0 0 0 0 0 0 0 0 0 0 0 0 0 0 0 0 0 0 0 0 0 0 0 0 0 0 0 -0 -0 -0 -0 -0 -0 -0 -0
0 0 0 0 0 0 0 0 0 0 0 0 0 0 0 0 0 0 0 0 0 0 0 0 0 0 0 0 0 0 0 0 0 0 0 0 0 0 0 0 0 0 0 -0 0 0 0 0 -0 -0 0 0 -0 -0
0 0 0 0 0 0 0 0 0 0 0 0 0 0 0 0 0 0 0 0 0 0 0 0 0 0 0 0 0 0 0 0 0 0 0 0 0 0 -0 0 0 0 0 -0 -0 -0 -0 0 0 0 0 0 0 0
0 0 0 0 0 0 0 0 0 0 0 0 0 0 0 0 0 0 0 0 -0 0 0 0 0 0 0 0 0 0 0 0 0 0 0 0 -0 -0 -0 -0 0 0 -0 -0 -0 -0 0 0 0 0 0 0 0 0
0 0 0 0 0 0 0 0 0 0 0 0 0 0 0 0 0 0 0 0 0 0 0 0 0 0 0 0 0 0 0 0 0 0 0 -0 -0 -0 -0 -0 0 0 0 0 0 0 -0 0 0 0 0 0 0 0
0 0 0 0 0 0 0 0 0 0 0 0 0 0 0 0 0 0 0 0 0 0 0 0 0 0 0 0 0 0 0 0 -0 0 0 0 -0 -0 -0 0 0 0 0 0 0 -0 -0 -0 0 0 0 0 0 0
0 0 0 0 0 0 0 0 0 0 -0 0 0 0 0 0 0 0 0 0 0 0 0 0 0 0 0 0 0 -0 0 0 0 0 0 0 0 -0 -0 0 0 0 0 0 0 -0 0 0 -0 -0 -0 0 0 0
-0 0 0 -0 0 0 0 0 0 0 0 0 0 0 0 0 0 0 0 0 0 0 0 0 0 0 0 0 0 0 0 0 0 0 0 0 0 0 0 0 0 0 0 -0 -0 0 0 0 0 0 0 0 0 0
0 0 0 0 0 0 0 -0 0 0 0 -0 -0 -0 -0 0 0 0 0 0 0 0 0 0 0 0 0 0 0 0 0 0 0 0 0 0 0 0 0 0 0 0 -0 -0 0 0 0 0 0 0 -0 0 0 0
0 -0 0 0 0 0 0 0 0 0 0 0 0 0 -0 -0 -0 -0 0 0 0 -0 0 0 0 0 0 0 0 0 0 -0 -0 0 0 0 0 0 0 0 -0 -0 0 0 0 0 -0 0 0 -0 0 0 0 0
0 0 0 0 0 0 0 0 0 0 0 0 0 0 0 0 -0 -0 -0 -0 -0 0 0 0 -0 0 0 0 0 0 0 0 0 0 0 0 0 0 -0 -0 -0 0 0 0 -0 0 0 0 0 0 0 0 0 0
0 0 0 0 0 0 0 0 0 0 0 0 0 0 0 0 0 0 0 0 0 0 -0 -0 -0 0 0 0 0 0 0 0 0 0 0 -0 -0 -0 -0 -0 -0 0 0 0 0 0 0 0 0 0 0 0 0 0
0 0 0 0 0 0 0 0 0 0 0 0 0 0 0 0 0 0 0 -0 0 -0 0 -0 -0 0 -0 -0 0 -0 0 0 0 -0 0 -0 -0 -0 -0 -0 0 -0 0 -0 -0 -0 0 0 0 0 0 0 0 0
0 0 0 0 0 0 0 0 0 0 0 0 0 0 0 0 0 -0 -0 -0 0 -0 -0 -0 -0 -0 -0 0 0 0 0 0 -0 -0 0 -0 -0 0 -0 -0 -0 -0 0 -0 -0 -0 -0 -0 0 0 0 0 0 0
0 0 0 0 0 0 0 0 0 0 0 0 0 0 0 0 0 0 0 -0 -0 -0 0 0 0 0 0 0 0 0 0 0 0 -0 -0 0 0 0 0 -0 -0 -0 -0 -0 -0 -0 -0 -0 0 0 0 0 0 0
0 0 0 0 0 0 0 0 0 0 0 0 0 0 0 0 0 0 0 0 -0 0 -0 0 0 0 0 0 0 0 0 -0 0 0 0 0 0 0 0 0 0 -0 -0 -0 -0 -0 -0 -0 0 0 -0 0 0 0
0 0 0 0 0 0 0 0 0 0 0 0 0 0 0 0 0 0 0 -0 -0 0 0 -0 -0 0 0 0 0 0 0 0 0 0 0 0 0 0 -0 -0 -0 -0 -0 -0 -0 -0 -0 -0 -0 0 -0 0 0 0
0 0 0 0 0 0 0 0 0 0 0 0 0 0 0 0 0 0 0 0 0 0 0 0 0 0 0 0 0 0 0 0 0 0 0 0 0 0 0 0 0 -0 -0 -0 -0 -0 -0 -0 -0 0 0 0 0 0
0 0 0 0 0 0 0 0 0 0 0 0 0 0 0 0 0 0 0 0 0 0 0 0 0 0 0 0 0 0 0 0 0 0 0 0 -0 0 0 0 0 0 -0 -0 -0 -0 -0 0 0 0 0 0 0 0
0 0 0 0 0 0 0 0 0 0 0 0 0 0 0 0 0 0 0 0 -0 -0 0 0 0 0 0 0 0 0 0 0 0 0 -0 0 -0 0 0 0 0 0 -0 -0 -0 -0 -0 -0 0 0 0 0 0 0
0 0 0 -0 -0 0 0 0 0 0 0 0 0 0 0 0 0 0 0 0 0 0 0 0 -0 -0 -0 -0 -0 -0 -0 -0 -0 -0 -0 -0 -0 -0 0 0 0 0 0 0 0 -0 -0 -0 0 0 0 0 0 0
Wind_Speed_500mb
46 45 45 47 47 41 34 32 29 27 26 22 22 19 18 16 13 7 12 14 13 11 33 33 23 15 16 9 4 9 11 4 5 3 5 5 5 4 5 7 6 3 6 8 3 6 10 14 16 4 10 10 13 25
43 42 40 37 36 33 31 29 27 28 27 23 21 20 19 18 17 12 11 20 22 23 22 25 41 52 53 40 30 9 5 3 4 5 1 1 3 3 2 6 8 4 8 6 13 10 7 29 20 25 19 22 31 32
42 40 38 37 35 32 30 30 30 28 26 24 21 21 20 19 21 21 16 17 18 22 45 40 12 8 7 23 26 19 23 19 12 10 9 4 7 6 4 9 4 5 3 4 7 8 15 48 32 33 43 35 39 41
39 37 36 35 35 33 32 31 30 29 27 24 21 22 23 20 21 25 22 16 15 7 8 17 19 21 11 19 36 40 52 23 24 15 8 5 5 13 6 6 7 11 5 4 10 16 25 21 49 36 20 18 23 29
35 34 34 33 33 32 31 31 31 28 26 25 21 22 22 20 21 23 22 21 23 17 6 30 61 45 24 27 28 31 35 47 33 12 5 7 8 5 3 2 9 15 12 8 10 8 4 35 44 22 16 22 25 32
38 38 36 33 29 25 23 21 20 20 22 20 17 16 16 16 18 13 6 5 11 24 4 8 27 46 24 13 24 41 45 34 35 17 11 12 12 12 6 7 14 17 21 20 13 21 36 61 44 23 26 28 30 32
34 36 39 37 38 34 29 24 20 16 14 15 15 16 14 16 15 14 4 15 14 14 5 11 17 13 29 17 8 16 37 36 34 22 18 15 17 19 6 18 10 19 38 57 55 56 58 31 16 22 25 30 33 34
27 28 30 30 25 25 25 22 20 15 17 17 15 14 10 15 23 23 11 27 18 9 4 5 9 20 8 9 8 4 10 22 18 18 12 16 11 13 10 27 50 51 52 47 41 40 35 26 23 29 28 31 34 37
31 25 24 23 20 14 18 18 19 16 17 16 15 15 17 14 7 11 7 16 38 17 6 9 5 7 17 14 9 3 2 2 7 7 11 15 8 10 15 29 41 38 32 26 24 27 22 22 29 24 32 31 33 42
26 19 19 25 26 23 19 19 20 19 19 17 15 9 8 5 4 5 7 8 13 18 13 10 11 8 14 17 9 16 6 5 3 8 12 7 11 56 41 41 45 52 40 30 26 17 7 11 16 26 34 36 41 45
24 23 25 28 23 27 19 18 17 21 20 17 13 8 4 8 9 12 10 9 12 8 14 13 29 18 28 6 5 10 5 4 5 7 8 5 6 6 10 11 11 2 6 8 9 3 8 13 18 28 40 48 53 52
23 28 26 26 25 25 22 20 20 24 13 15 8 7 4 8 7 6 7 6 8 8 11 10 15 19 11 15 8 9 6 2 10 5 4 5 6 19 21 18 15 9 1 8 14 15 31 44 44 43 48 53 57 58
32 28 28 31 28 23 26 23 21 16 20 17 10 5 5 6 9 9 11 7 6 8 8 5 7 10 10 15 10 4 6 9 12 3 7 3 20 28 21 14 7 4 3 13 19 25 34 43 47 55 57 49 51 55
24 26 26 23 26 25 33 23 21 21 17 9 11 7 7 7 8 8 2 4 3 8 15 18 9 6 6 4 6 7 8 1 5 5 7 3 19 25 14 4 11 10 18 24 34 46 48 46 48 47 35 37 44 48
24 24 21 23 26 29 25 22 23 25 13 10 11 8 12 17 10 5 7 13 11 13 14 6 3 8 5 6 4 3 4 7 8 6 3 11 18 14 12 15 15 21 28 35 45 48 43 41 44 48 33 32 34 42
17 15 17 19 22 23 23 22 24 27 8 10 13 8 16 4 13 18 16 3 10 14 15 3 3 4 7 4 6 7 4 8 3 5 12 23 27 21 17 17 22 28 33 40 46 40 38 39 36 39 32 29 34 32
15 13 10 16 23 22 24 29 24 13 13 9 11 30 25 12 13 12 14 13 10 4 1 2 5 8 3 4 7 6 5 5 9 9 12 13 19 24 31 31 32 36 36 45 41 36 35 28 28 24 25 27 30 30
19 13 14 13 26 33 28 27 13 11 11 16 11 30 38 36 30 30 43 39 15 13 8 6 3 4 5 5 3 3 6 10 12 8 11 13 19 27 34 40 41 34 39 40 30 24 18 21 23 21 24 24 31 25
17 15 12 14 32 36 17 16 13 6 19 16 35 36 37 46 56 56 48 38 34 33 12 9 6 7 7 9 13 16 21 23 29 26 15 19 25 31 37 40 34 33 37 28 17 19 26 25 22 21 24 24 18 17
16 12 17 19 27 15 5 6 12 12 12 16 29 39 45 42 47 49 47 46 47 24 15 11 10 24 21 23 30 45 42 45 49 39 38 39 30 31 29 34 28 28 26 18 19 26 29 32 27 27 25 19 5 10
16 11 25 36 28 9 8 9 12 12 12 14 16 28 25 32 44 49 50 47 29 17 13 35 48 54 57 59 61 56 52 40 45 33 35 36 32 35 33 29 21 24 19 20 25 33 36 29 22 27 17 12 11 4
16 14 12 18 5 5 11 15 12 8 10 18 22 21 18 15 30 46 45 28 26 44 41 46 52 54 58 58 54 51 50 52 47 43 45 34 31 31 29 27 26 24 23 27 31 29 30 26 24 19 8 8 11 7
18 14 7 4 6 9 13 12 11 10 6 8 10 9 7 6 9 20 16 21 28 41 49 52 55 55 56 50 46 47 47 46 46 45 42 40 36 26 19 18 20 20 23 23 23 22 24 24 13 8 6 6 8 11
11 5 6 8 14 9 8 9 13 10 10 6 6 6 6 13 7 9 5 9 7 6 10 16 22 28 31 32 34 32 30 29 37 47 40 42 28 26 21 19 22 19 23 24 19 18 18 18 9 6 6 8 15 18
4 7 7 10 10 7 7 6 6 5 8 5 6 6 3 5 3 3 2 4 19 24 21 19 22 24 25 28 29 27 27 18 15 17 25 25 21 21 17 18 18 16 18 13 14 16 15 15 4 9 9 11 17 22
4 8 11 7 7 8 5 6 5 6 6 4 3 11 9 4 6 6 6 25 24 23 19 15 12 14 15 9 3 8 3 12 19 18 15 18 23 23 20 19 20 19 19 20 17 16 15 11 6 14 12 13 18 24
5 8 10 12 12 11 10 15 17 9 5 4 4 6 6 7 9 8 27 40 45 32 17 5 8 8 16 12 10 5 1 6 11 12 14 16 19 20 23 26 29 20 13 13 12 13 12 10 7 19 16 15 20 25
9 9 7 14 15 14 7 6 5 7 6 11 6 10 7 9 5 19 25 47 54 35 26 23 20 22 15 12 10 6 9 18 21 24 16 8 15 14 14 7 2 3 4 8 10 10 8 2 7 15 20 19 21 26
10 12 18 26 16 6 4 3 3 5 15 9 4 5 4 7 30 29 36 39 47 47 46 48 41 26 18 13 8 17 17 12 13 21 16 13 15 13 7 3 9 4 5 9 8 3 4 9 10 14 16 19 23 27
8 9 7 8 5 4 4 13 9 16 31 38 30 30 37 44 42 39 39 45 48 46 43 43 41 39 37 24 18 13 14 18 24 22 20 15 13 11 9 8 9 3 3 7 5 5 11 9 12 19 18 23 25 32
13 8 7 7 6 13 17 18 19 15 21 25 35 32 22 19 47 52 50 44 42 41 40 40 40 46 44 41 32 20 13 10 9 7 7 11 14 9 7 5 7 12 10 4 5 7 9 11 17 22 21 26 29 34
7 9 5 3 10 8 6 3 11 16 17 8 8 11 12 10 10 27 49 45 45 45 41 38 39 40 41 39 33 19 14 13 3 2 3 18 20 15 9 4 7 13 6 8 7 4 3 9 19 27 26 29 36 39
8 12 11 5 9 5 10 8 6 7 14 13 16 12 12 8 11 22 32 42 40 39 37 33 32 32 31 34 34 25 10 10 9 7 11 19 24 17 14 9 12 18 14 11 7 4 6 17 23 29 32 35 41 44
Wind_Direction_500mb
265 266 266 261 261 260 257 257 259 262 266 271 276 284 291 299 304 280 231 244 248 248 273 269 257 227 265 270 183 329 344 331 24 103 158 246 214 283 327 282 300 221 178 203 154 193 254 342 339 192 246 304 288 286
263 262 261 259 256 252 249 250 250 254 258 262 269 275 281 287 288 279 250 241 258 268 268 273 273 278 273 266 266 268 250 261 245 96 181 292 305 337 153 282 326 286 179 210 179 226 249 337 266 298 298 280 302 291
259 258 256 254 252 249 247 247 251 254 257 262 265 266 271 277 282 281 273 269 281 283 293 276 290 343 256 235 237 244 238 234 235 241 181 202 241 132 224 247 284 303 198 221 19 293 294 318 316 327 323 316 308 311
256 254 252 251 252 251 249 248 249 252 256 261 262 264 267 268 265 273 280 281 280 273 286 278 255 278 225 243 281 249 234 230 252 204 198 182 188 192 221 238 206 214 348 240 260 291 314 323 333 331 341 355 341 334
257 254 249 246 248 251 250 249 248 248 247 249 257 268 265 262 261 269 282 270 241 226 276 294 300 293 260 255 246 238 233 242 212 175 151 218 216 201 235 331 251 194 214 175 229 191 249 314 328 351 346 354 354 358
247 236 239 246 241 242 241 246 247 238 249 243 241 256 280 267 256 278 213 351 201 209 270 300 306 291 311 265 260 246 237 233 210 197 193 223 205 188 203 240 248 227 247 234 261 266 302 312 294 296 327 343 347 346
251 244 238 244 243 231 227 223 223 232 245 259 229 249 261 285 266 242 213 165 147 157 228 295 286 282 312 313 278 232 220 211 208 206 199 202 196 197 187 250 235 244 267 280 280 281 292 284 271 305 322 330 335 332
250 240 238 235 232 225 225 220 221 229 246 244 246 256 260 274 273 274 245 197 180 201 233 261 276 311 349 320 317 287 207 204 214 209 187 192 169 201 251 246 265 266 277 286 302 306 278 277 289 296 313 322 324 336
249 243 231 224 225 231 234 229 219 234 234 225 218 227 259 258 238 119 77 204 203 212 245 220 227 265 345 16 346 320 353 163 191 190 215 177 176 217 233 248 266 276 272 285 300 301 256 250 270 273 291 312 327 331
239 239 244 236 226 210 229 234 233 225 217 212 216 233 235 146 159 148 169 178 161 200 236 247 223 254 351 357 336 7 11 339 273 246 145 174 234 242 253 265 275 282 286 279 276 250 235 231 281 289 302 315 319 319
240 228 238 241 238 217 206 214 206 207 204 189 195 233 214 265 177 184 196 169 183 225 221 243 229 243 258 222 229 250 243 215 271 265 159 235 258 236 238 232 262 334 168 117 85 31 305 289 294 299 294 302 306 307
244 231 223 228 231 210 200 207 215 204 198 189 200 257 266 196 219 202 189 199 204 223 203 207 225 213 234 212 195 221 214 139 245 150 153 217 236 164 154 144 130 123 175 292 290 287 299 302 299 302 304 302 301 302
243 241 226 216 217 211 208 206 212 214 204 207 205 218 208 199 218 223 193 181 207 213 213 231 254 214 202 213 233 167 210 235 321 219 231 242 168 171 157 135 121 193 323 324 319 309 297 296 293 294 298 302 301 299
223 218 211 217 208 212 195 200 200 208 196 203 188 182 212 211 238 204 157 115 319 317 284 262 243 205 163 195 225 202 227 73 249 241 243 222 205 177 173 308 316 339 339 332 326 320 309 301 300 299 304 310 311 307
230 230 221 214 224 206 190 197 200 209 219 211 182 220 224 234 261 1 271 301 316 293 296 286 203 187 200 250 235 267 219 245 223 213 208 155 168 186 264 284 280 301 320 320 318 321 315 306 302 303 308 321 315 307
188 190 206 208 203 199 193 188 191 206 243 223 214 228 243 255 260 244 193 164 40 343 310 219 238 254 221 228 213 203 240 230 203 221 171 173 181 214 218 239 268 284 302 309 312 314 308 309 308 305 301 306 315 314
207 209 189 187 185 182 189 191 190 202 226 215 226 231 245 251 253 229 255 252 268 289 248 223 246 226 192 219 225 201 220 224 243 256 235 232 238 246 252 264 277 276 297 307 315 309 310 311 321 308 306 304 304 323
213 186 194 185 178 177 184 193 199 228 237 224 219 232 227 243 245 236 266 279 248 201 180 242 220 255 247 238 160 116 297 318 218 272 266 261 263 262 260 263 270 276 297 309 305 315 326 316 320 310 300 302 294 315
194 201 223 198 184 174 177 199 224 260 235 224 234 237 238 246 253 259 263 265 257 274 226 217 221 229 235 235 165 172 239 257 285 282 285 290 273 270 274 270 270 288 301 296 296 336 332 331 344 330 322 299 303 329
190 199 191 181 178 181 193 217 207 234 243 234 232 236 234 242 255 257 263 257 253 246 206 202 202 230 243 268 270 290 300 306 307 294 279 290 287 286 285 264 270 294 290 275 302 300 309 316 305 318 313 317 296 313
175 168 172 177 184 207 232 217 228 241 261 250 270 253 240 249 246 246 250 249 235 219 224 238 247 252 257 269 280 283 288 291 300 299 297 285 282 295 287 253 280 280 281 294 296 298 308 312 299 304 297 283 238 336
156 164 146 154 160 249 260 230 235 271 251 247 270 254 245 223 230 235 243 228 235 238 237 245 254 260 263 270 274 273 273 280 275 275 284 266 275 288 278 252 278 275 297 287 289 308 326 313 295 291 278 265 236 230
145 142 144 147 210 231 263 224 231 230 231 240 215 217 223 258 226 207 199 223 237 248 247 253 258 260 261 263 259 261 265 269 268 266 257 270 275 273 241 260 306 301 279 280 299 311 315 322 304 262 239 219 208 189
155 193 196 206 215 261 259 235 223 242 241 236 240 253 222 205 199 199 219 160 136 186 213 226 236 237 239 244 252 256 259 262 265 256 253 251 245 237 243 290 290 272 284 291 293 297 313 335 307 225 200 180 169 167
238 222 204 243 229 241 251 255 249 249 253 246 256 236 256 221 223 203 157 48 321 304 296 281 269 261 256 260 276 277 244 235 260 237 222 221 232 230 254 291 264 278 305 312 312 293 308 334 264 189 185 171 167 170
261 211 190 235 223 209 264 273 266 279 268 255 308 327 335 332 27 47 353 327 320 328 322 298 280 263 241 217 220 156 62 230 229 234 249 239 237 249 270 276 270 289 293 306 296 292 299 323 230 188 183 175 164 167
279 262 240 251 268 281 291 274 263 260 279 337 349 342 355 39 35 337 316 350 336 352 336 269 232 215 162 140 186 308 121 183 212 253 272 261 249 256 260 267 284 295 275 296 278 279 306 319 240 185 180 169 166 164
259 279 244 288 289 271 244 273 302 344 359 348 26 28 41 15 344 332 347 9 36 69 57 82 104 98 97 82 60 52 317 290 274 257 246 210 249 244 248 276 206 122 253 255 244 261 313 311 181 175 176 173 165 164
256 260 287 277 284 238 289 247 289 353 356 19 48 60 49 44 12 12 21 34 56 59 60 64 70 74 75 80 359 312 327 18 147 160 156 161 153 118 82 337 309 272 258 228 229 247 95 145 166 174 175 173 169 167
260 308 267 277 248 244 33 2 59 87 102 103 97 92 73 64 54 41 41 44 48 49 48 48 48 51 48 47 40 22 357 57 91 110 130 156 146 104 65 71 58 56 279 288 249 196 158 162 156 168 166 163 165 166
287 283 269 248 327 19 132 78 73 99 125 123 122 116 122 78 52 42 37 37 36 37 39 38 32 30 31 30 29 33 46 53 84 98 163 163 161 153 105 79 26 342 313 290 173 150 162 172 159 163 160 159 158 158
253 242 272 10 93 92 162 3 43 67 98 104 102 83 77 61 43 32 25 25 28 29 28 27 23 17 13 14 27 33 34 25 29 283 21 198 195 185 157 76 43 43 64 157 142 161 170 171 160 160 155 153 151 155
270 293 322 64 149 211 169 162 129 86 40 30 36 81 80 77 61 29 19 23 23 20 17 17 7 359 4 9 18 20 25 17 35 151 122 100 119 128 140 104 78 56 68 131 130 131 131 151 155 157 154 149 153 156
Wind_Speed_850mb
46 45 45 47 47 41 34 32 29 27 26 22 22 19 18 16 13 7 12 14 13 11 33 33 23 15 16 9 4 9 11 4 5 3 5 5 5 4 5 7 6 3 6 8 3 6 10 14 16 4 10 10 13 25
43 42 40 37 36 33 31 29 27 28 27 23 21 20 19 18 17 12 11 20 22 23 22 25 41 52 53 40 30 9 5 3 4 5 1 1 3 3 2 6 8 4 8 6 13 10 7 29 20 25 19 22 31 32
42 40 38 37 35 32 30 30 30 28 26 24 21 21 20 19 21 21 16 17 18 22 45 40 12 8 7 23 26 19 23 19 12 10 9 4 7 6 4 9 4 5 3 4 7 8 15 48 32 33 43 35 39 41
39 37 36 35 35 33 32 31 30 29 27 24 21 22 23 20 21 25 22 16 15 7 8 17 19 21 11 19 36 40 52 23 24 15 8 5 5 13 6 6 7 11 5 4 10 16 25 21 49 36 20 18 23 29
35 34 34 33 33 32 31 31 31 28 26 25 21 22 22 20 21 23 22 21 23 17 6 30 61 45 24 27 28 31 35 47 33 12 5 7 8 5 3 2 9 15 12 8 10 8 4 35 44 22 16 22 25 32
38 38 36 33 29 25 23 21 20 20 22 20 17 16 16 16 18 13 6 5 11 24 4 8 27 46 24 13 24 41 45 34 35 17 11 12 12 12 6 7 14 17 21 20 13 21 36 61 44 23 26 28 30 32
34 36 39 37 38 34 29 24 20 16 14 15 15 16 14 16 15 14 4 15 14 14 5 11 17 13 29 17 8 16 37 36 34 22 18 15 17 19 6 18 10 19 38 57 55 56 58 31 16 22 25 30 33 34
27 28 30 30 25 25 25 22 20 15 17 17 15 14 10 15 23 23 11 27 18 9 4 5 9 20 8 9 8 4 10 22 18 18 12 16 11 13 10 27 50 51 52 47 41 40 35 26 23 29 28 31 34 37
31 25 24 23 20 14 18 18 19 16 17 16 15 15 17 14 7 11 7 16 38 17 6 9 5 7 17 14 9 3 2 2 7 7 11 15 8 10 15 29 41 38 32 26 24 27 22 22 29 24 32 31 33 42
26 19 19 25 26 23 19 19 20 19 19 17 15 9 8 5 4 5 7 8 13 18 13 10 11 8 14 17 9 16 6 5 3 8 12 7 11 56 41 41 45 52 40 30 26 17 7 11 16 26 34 36 41 45
24 23 25 28 23 27 19 18 17 21 20 17 13 8 4 8 9 12 10 9 12 8 14 13 29 18 28 6 5 10 5 4 5 7 8 5 6 6 10 11 11 2 6 8 9 3 8 13 18 28 40 48 53 52
23 28 26 26 25 25 22 20 20 24 13 15 8 7 4 8 7 6 7 6 8 8 11 10 15 19 11 15 8 9 6 2 10 5 4 5 6 19 21 18 15 9 1 8 14 15 31 44 44 43 48 53 57 58
32 28 28 31 28 23 26 23 21 16 20 17 10 5 5 6 9 9 11 7 6 8 8 5 7 10 10 15 10 4 6 9 12 3 7 3 20 28 21 14 7 4 3 13 19 25 34 43 47 55 57 49 51 55
24 26 26 23 26 25 33 23 21 21 17 9 11 7 7 7 8 8 2 4 3 8 15 18 9 6 6 4 6 7 8 1 5 5 7 3 19 25 14 4 11 10 18 24 34 46 48 46 48 47 35 37 44 48
24 24 21 23 26 29 25 22 23 25 13 10 11 8 12 17 10 5 7 13 11 13 14 6 3 8 5 6 4 3 4 7 8 6 3 11 18 14 12 15 15 21 28 35 45 48 43 41 44 48 33 32 34 42
17 15 17 19 22 23 23 22 24 27 8 10 13 8 16 4 13 18 16 3 10 14 15 3 3 4 7 4 6 7 4 8 3 5 12 23 27 21 17 17 22 28 33 40 46 40 38 39 36 39 32 29 34 32
15 13 10 16 23 22 24 29 24 13 13 9 11 30 25 12 13 12 14 13 10 4 1 2 5 8 3 4 7 6 5 5 9 9 12 13 19 24 31 31 32 36 36 45 41 36 35 28 28 24 25 27 30 30
19 13 14 13 26 33 28 27 13 11 11 16 11 30 38 36 30 30 43 39 15 13 8 6 3 4 5 5 3 3 6 10 12 8 11 13 19 27 34 40 41 34 39 40 30 24 18 21 23 21 24 24 31 25
17 15 12 14 32 36 17 16 13 6 19 16 35 36 37 46 56 56 48 38 34 33 12 9 6 7 7 9 13 16 21 23 29 26 15 19 25 31 37 40 34 33 37 28 17 19 26 25 22 21 24 24 18 17
16 12 17 19 27 15 5 6 12 12 12 16 29 39 45 42 47 49 47 46 47 24 15 11 10 24 21 23 30 45 42 45 49 39 38 39 30 31 29 34 28 28 26 18 19 26 29 32 27 27 25 19 5 10
16 11 25 36 28 9 8 9 12 12 12 14 16 28 25 32 44 49 50 47 29 17 13 35 48 54 57 59 61 56 52 40 45 33 35 36 32 35 33 29 21 24 19 20 25 33 36 29 22 27 17 12 11 4
16 14 12 18 5 5 11 15 12 8 10 18 22 21 18 15 30 46 45 28 26 44 41 46 52 54 58 58 54 51 50 52 47 43 45 34 31 31 29 27 26 24 23 27 31 29 30 26 24 19 8 8 11 7
18 14 7 4 6 9 13 12 11 10 6 8 10 9 7 6 9 20 16 21 28 41 49 52 55 55 56 50 46 47 47 46 46 45 42 40 36 26 19 18 20 20 23 23 23 22 24 24 13 8 6 6 8 11
11 5 6 8 14 9 8 9 13 10 10 6 6 6 6 13 7 9 5 9 7 6 10 16 22 28 31 32 34 32 30 29 37 47 40 42 28 26 21 19 22 19 23 24 19 18 18 18 9 6 6 8 15 18
4 7 7 10 10 7 7 6 6 5 8 5 6 6 3 5 3 3 2 4 19 24 21 19 22 24 25 28 29 27 27 18 15 17 25 25 21 21 17 18 18 16 18 13 14 16 15 15 4 9 9 11 17 22
4 8 11 7 7 8 5 6 5 6 6 4 3 11 9 4 6 6 6 25 24 23 19 15 12 14 15 9 3 8 3 12 19 18 15 18 23 23 20 19 20 19 19 20 17 16 15 11 6 14 12 13 18 24
5 8 10 12 12 11 10 15 17 9 5 4 4 6 6 7 9 8 27 40 45 32 17 5 8 8 16 12 10 5 1 6 11 12 14 16 19 20 23 26 29 20 13 13 12 13 12 10 7 19 16 15 20 25
9 9 7 14 15 14 7 6 5 7 6 11 6 10 7 9 5 19 25 47 54 35 26 23 20 22 15 12 10 6 9 18 21 24 16 8 15 14 14 7 2 3 4 8 10 10 8 2 7 15 20 19 21 26
10 12 18 26 16 6 4 3 3 5 15 9 4 5 4 7 30 29 36 39 47 47 46 48 41 26 18 13 8 17 17 12 13 21 16 13 15 13 7 3 9 4 5 9 8 3 4 9 10 14 16 19 23 27
8 9 7 8 5 4 4 13 9 16 31 38 30 30 37 44 42 39 39 45 48 46 43 43 41 39 37 24 18 13 14 18 24 22 20 15 13 11 9 8 9 3 3 7 5 5 11 9 12 19 18 23 25 32
13 8 7 7 6 13 17 18 19 15 21 25 35 32 22 19 47 52 50 44 42 41 40 40 40 46 44 41 32 20 13 10 9 7 7 11 14 9 7 5 7 12 10 4 5 7 9 11 17 22 21 26 29 34
7 9 5 3 10 8 6 3 11 16 17 8 8 11 12 10 10 27 49 45 45 45 41 38 39 40 41 39 33 19 14 13 3 2 3 18 20 15 9 4 7 13 6 8 7 4 3 9 19 27 26 29 36 39
8 12 11 5 9 5 10 8 6 7 14 13 16 12 12 8 11 22 32 42 40 39 37 33 32 32 31 34 34 25 10 10 9 7 11 19 24 17 14 9 12 18 14 11 7 4 6 17 23 29 32 35 41 44
Wind_Direction_850mb
265 266 266 261 261 260 257 257 259 262 266 271 276 284 291 299 304 280 231 244 248 248 273 269 257 227 265 270 183 329 344 331 24 103 158 246 214 283 327 282 300 221 178 203 154 193 254 342 339 192 246 304 288 286
263 262 261 259 256 252 249 250 250 254 258 262 269 275 281 287 288 279 250 241 258 268 268 273 273 278 273 266 266 268 250 261 245 96 181 292 305 337 153 282 326 286 179 210 179 226 249 337 266 298 298 280 302 291
259 258 256 254 252 249 247 247 251 254 257 262 265 266 271 277 282 281 273 269 281 283 293 276 290 343 256 235 237 244 238 234 235 241 181 202 241 132 224 247 284 303 198 221 19 293 294 318 316 327 323 316 308 311
256 254 252 251 252 251 249 248 249 252 256 261 262 264 267 268 265 273 280 281 280 273 286 278 255 278 225 243 281 249 234 230 252 204 198 182 188 192 221 238 206 214 348 240 260 291 314 323 333 331 341 355 341 334
257 254 249 246 248 251 250 249 248 248 247 249 257 268 265 262 261 269 282 270 241 226 276 294 300 293 260 255 246 238 233 242 212 175 151 218 216 201 235 331 251 194 214 175 229 191 249 314 328 351 346 354 354 358
247 236 239 246 241 242 241 246 247 238 249 243 241 256 280 267 256 278 213 351 201 209 270 300 306 291 311 265 260 246 237 233 210 197 193 223 205 188 203 240 248 227 247 234 261 266 302 312 294 296 327 343 347 346
251 244 238 244 243 231 227 223 223 232 245 259 229 249 261 285 266 242 213 165 147 157 228 295 286 282 312 313 278 232 220 211 208 206 199 202 196 197 187 250 235 244 267 280 280 281 292 284 271 305 322 330 335 332
250 240 238 235 232 225 225 220 221 229 246 244 246 256 260 274 273 274 245 197 180 201 233 261 276 311 349 320 317 287 207 204 214 209 187 192 169 201 251 246 265 266 277 286 302 306 278 277 289 296 313 322 324 336
249 243 231 224 225 231 234 229 219 234 234 225 218 227 259 258 238 119 77 204 203 212 245 220 227 265 345 16 346 320 353 163 191 190 215 177 176 217 233 248 266 276 272 285 300 301 256 250 270 273 291 312 327 331
239 239 244 236 226 210 229 234 233 225 217 212 216 233 235 146 159 148 169 178 161 200 236 247 223 254 351 357 336 7 11 339 273 246 145 174 234 242 253 265 275 282 286 279 276 250 235 231 281 289 302 315 319 319
240 228 238 241 238 217 206 214 206 207 204 189 195 233 214 265 177 184 196 169 183 225 221 243 229 243 258 222 229 250 243 215 271 265 159 235 258 236 238 232 262 334 168 117 85 31 305 289 294 299 294 302 306 307
244 231 223 228 231 210 200 207 215 204 198 189 200 257 266 196 219 202 189 199 204 223 203 207 225 213 234 212 195 221 214 139 245 150 153 217 236 164 154 144 130 123 175 292 290 287 299 302 299 302 304 302 301 302
243 241 226 216 217 211 208 206 212 214 204 207 205 218 208 199 218 223 193 181 207 213 213 231 254 214 202 213 233 167 210 235 321 219 231 242 168 171 157 135 121 193 323 324 319 309 297 296 293 294 298 302 301 299
223 218 211 217 208 212 195 200 200 208 196 203 188 182 212 211 238 204 157 115 319 317 284 262 243 205 163 195 225 202 227 73 249 241 243 222 205 177 173 308 316 339 339 332 326 320 309 301 300 299 304 310 311 307
230 230 221 214 224 206 190 197 200 209 219 211 182 220 224 234 261 1 271 301 316 293 296 286 203 187 200 250 235 267 219 245 223 213 208 155 168 186 264 284 280 301 320 320 318 321 315 306 302 303 308 321 315 307
188 190 206 208 203 199 193 188 191 206 243 223 214 228 243 255 260 244 193 164 40 343 310 219 238 254 221 228 213 203 240 230 203 221 171 173 181 214 218 239 268 284 302 309 312 314 308 309 308 305 301 306 315 314
207 209 189 187 185 182 189 191 190 202 226 215 226 231 245 251 253 229 255 252 268 289 248 223 246 226 192 219 225 201 220 224 243 256 235 232 238 246 252 264 277 276 297 307 315 309 310 311 321 308 306 304 304 323
213 186 194 185 178 177 184 193 199 228 237 224 219 232 227 243 245 236 266 279 248 201 180 242 220 255 247 238 160 116 297 318 218 272 266 261 263 262 260 263 270 276 297 309 305 315 326 316 320 310 300 302 294 315
194 201 223 198 184 174 177 199 224 260 235 224 234 237 238 246 253 259 263 265 257 274 226 217 221 229 235 235 165 172 239 257 285 282 285 290 273 270 274 270 270 288 301 296 296 336 332 331 344 330 322 299 303 329
190 199 191 181 178 181 193 217 207 234 243 234 232 236 234 242 255 257 263 257 253 246 206 202 202 230 243 268 270 290 300 306 307 294 279 290 287 286 285 264 270 294 290 275 302 300 309 316 305 318 313 317 296 313
175 168 172 177 184 207 232 217 228 241 261 250 270 253 240 249 246 246 250 249 235 219 224 238 247 252 257 269 280 283 288 291 300 299 297 285 282 295 287 253 280 280 281 294 296 298 308 312 299 304 297 283 238 336
156 164 146 154 160 249 260 230 235 271 251 247 270 254 245 223 230 235 243 228 235 238 237 245 254 260 263 270 274 273 273 280 275 275 284 266 275 288 278 252 278 275 297 287 289 308 326 313 295 291 278 265 236 230
145 142 144 147 210 231 263 224 231 230 231 240 215 217 223 258 226 207 199 223 237 248 247 253 258 260 261 263 259 261 265 269 268 266 257 270 275 273 241 260 306 301 279 280 299 311 315 322 304 262 239 219 208 189
155 193 196 206 215 261 259 235 223 242 241 236 240 253 222 205 199 199 219 160 136 186 213 226 236 237 239 244 252 256 259 262 265 256 253 251 245 237 243 290 290 272 284 291 293 297 313 335 307 225 200 180 169 167
238 222 204 243 229 241 251 255 249 249 253 246 256 236 256 221 223 203 157 48 321 304 296 281 269 261 256 260 276 277 244 235 260 237 222 221 232 230 254 291 264 278 305 312 312 293 308 334 264 189 185 171 167 170
261 211 190 235 223 209 264 273 266 279 268 255 308 327 335 332 27 47 353 327 320 328 322 298 280 263 241 217 220 156 62 230 229 234 249 239 237 249 270 276 270 289 293 306 296 292 299 323 230 188 183 175 164 167
279 262 240 251 268 281 291 274 263 260 279 337 349 342 355 39 35 337 316 350 336 352 336 269 232 215 162 140 186 308 121 183 212 253 272 261 249 256 260 267 284 295 275 296 278 279 306 319 240 185 180 169 166 164
259 279 244 288 289 271 244 273 302 344 359 348 26 28 41 15 344 332 347 9 36 69 57 82 104 98 97 82 60 52 317 290 274 257 246 210 249 244 248 276 206 122 253 255 244 261 313 311 181 175 176 173 165 164
256 260 287 277 284 238 289 247 289 353 356 19 48 60 49 44 12 12 21 34 56 59 60 64 70 74 75 80 359 312 327 18 147 160 156 161 153 118 82 337 309 272 258 228 229 247 95 145 166 174 175 173 169 167
260 308 267 277 248 244 33 2 59 87 102 103 97 92 73 64 54 41 41 44 48 49 48 48 48 51 48 47 40 22 357 57 91 110 130 156 146 104 65 71 58 56 279 288 249 196 158 162 156 168 166 163 165 166
287 283 269 248 327 19 132 78 73 99 125 123 122 116 122 78 52 42 37 37 36 37 39 38 32 30 31 30 29 33 46 53 84 98 163 163 161 153 105 79 26 342 313 290 173 150 162 172 159 163 160 159 158 158
253 242 272 10 93 92 162 3 43 67 98 104 102 83 77 61 43 32 25 25 28 29 28 27 23 17 13 14 27 33 34 25 29 283 21 198 195 185 157 76 43 43 64 157 142 161 170 171 160 160 155 153 151 155
270 293 322 64 149 211 169 162 129 86 40 30 36 81 80 77 61 29 19 23 23 20 17 17 7 359 4 9 18 20 25 17 35 151 122 100 119 128 140 104 78 56 68 131 130 131 131 151 155 157 154 149 153 156